This demonstration page uses our WeatherBlox Daily Observations layout. Learn more.

Left ArrowRight Arrow

Hourly Observations for October 25, 2015

Temp ( °F °C ) Dew Point ( °F °C ) Humidity (%) Winds ( mph kmh ) Pressure ( in mb ) Visibility ( mi km ) Precip ( " mm )
12:53 am 00:53 Clear 62 16.7 59 15 90 90 NNE 3 6 30.12 1020 10 16 0.00 0.00
1:53 am 01:53 Clear 63 17.2 59 15 87 87 Calm 30.12 1020 9 14 0.00 0.00
2:53 am 02:53 Clear 61 16.1 58 14.4 90 90 NNE 5 7 30.13 1020 8 13 0.00 0.00
3:49 am 03:49 Mostly Cloudy 63 17 57 14 83 83 Calm 30.18 1022 7 11 0.00 0.00
3:53 am 03:53 Mostly Cloudy 62 16.7 58 14.4 86 86 NNE 5 7 30.14 1021 7 11 0.00 0.00
4:31 am 04:31 Cloudy 62 16.7 58 14.4 86 86 Calm 30.15 1021 8 13 0.00 0.00
4:53 am 04:53 Cloudy 62 16.7 58 14.4 86 86 NNE 5 7 30.14 1021 7 11 0.00 0.00
5:53 am 05:53 Cloudy 62 16.7 59 15 90 90 NE 5 7 30.14 1021 7 11 0.00 0.00
6:53 am 06:53 Cloudy with Mist and Fog 62 16.7 59 15 90 90 NE 3 6 30.16 1021 5 8 0.00 0.00
7:53 am 07:53 Cloudy with Mist and Fog 62 16.7 60 15.6 93 93 SSE 3 6 30.17 1022 2 2 0.00 0.00
8:53 am 08:53 Cloudy with Mist and Fog 63 17.2 60 15.6 90 90 NE 5 7 30.16 1021 2 3 0.00 0.00
9:53 am 09:53 Cloudy with Mist and Fog 64 17.8 60 15.6 87 87 NNE 5 7 30.18 1022 4 6 0.00 0.00
10:53 am 10:53 Cloudy with Haze 66 18.9 61 16.1 84 84 NE 7 11 30.19 1022 6 10 0.00 0.00
11:53 am 11:53 Cloudy 67 19.4 61 16.1 81 81 NE 5 7 30.18 1022 9 14 0.00 0.00
12:53 pm 12:53 Mostly Cloudy 68 20 61 16.1 78 78 ENE 3 6 30.17 1022 10 16 0.00 0.00
1:00 pm 13:00 Partly Cloudy 68 20 62 16.7 81 81 Calm 30.18 1022 10 16 0.00 0.00
1:53 pm 13:53 Sunny 70 21.1 62 16.7 76 76 NNE 6 9 30.13 1020 10 16 0.00 0.00
2:53 pm 14:53 Sunny 71 21.7 62 16.7 73 73 Calm 30.11 1020 10 16 0.00 0.00
3:53 pm 15:53 Sunny 72 22.2 63 17.2 73 73 Calm 30.10 1019 10 16 0.00 0.00
4:53 pm 16:53 Sunny 72 22.2 62 16.7 71 71 VRB 3 6 30.10 1019 10 16 0.00 0.00
5:53 pm 17:53 Sunny 71 21.7 63 17.2 76 76 Calm 30.10 1019 10 16 0.00 0.00
6:53 pm 18:53 Sunny 70 21.1 62 16.7 76 76 Calm 30.11 1020 10 16 0.00 0.00
7:53 pm 19:53 Clear 66 18.9 63 17.2 90 90 Calm 30.11 1020 10 16 0.00 0.00
8:53 pm 20:53 Clear 65 18.3 63 17.2 93 93 Calm 30.13 1020 8 13 0.00 0.00
9:53 pm 21:53 Clear 64 17.8 62 16.7 93 93 WNW 3 6 30.12 1020 9 14 0.00 0.00
10:53 pm 22:53 Clear 65 18.3 62 16.7 90 90 ENE 3 6 30.12 1020 9 14 0.00 0.00
11:53 pm 23:53 Mostly Clear 65 18.3 62 16.7 90 90 W 3 6 30.11 1020 9 14 0.00 0.00

Powered by AerisWeather